,,,PA_Meas_PMT16A,,PR_Meas_QMR101_102,,RH_Meas_QMH101,,SR_Meas_QMS101,,TA_Meas_QMH101,,GenWind,,GenWind,
date,time,status,PA,status,PR,status,RH,status,SR,status,TA,status,DirAvg,status,SpdAvg,
2011-05-08, 00:00:05,VALID,1000.14,VALID,0,VALID,92.5091,VALID,0,VALID,24.5209,VALID,40,VALID,0,
2011-05-08, 00:01:05,VALID,1000.13,VALID,0,VALID,92.4939,VALID,0,VALID,24.48,VALID,40,VALID,0,
2011-05-08, 00:02:05,VALID,1000.15,VALID,0,VALID,92.4939,VALID,0,VALID,24.4818,VALID,40,VALID,0,
2011-05-08, 00:03:05,VALID,1000.14,VALID,0,VALID,92.4863,VALID,0,VALID,24.4623,VALID,40,VALID,0,
2011-05-08, 00:04:05,VALID,1000.15,VALID,0,VALID,92.4939,VALID,0,VALID,24.4428,VALID,40,VALID,0,
2011-05-08, 00:05:05,VALID,1000.18,VALID,0,VALID,92.5015,VALID,0,VALID,24.4233,VALID,40,VALID,0,
2011-05-08, 00:06:05,VALID,1000.11,VALID,0,VALID,92.5091,VALID,0,VALID,24.4037,VALID,40,VALID,0,
2011-05-08, 00:07:05,VALID,1000.13,VALID,0,VALID,92.4939,VALID,0,VALID,24.3842,VALID,40,VALID,0,
2011-05-08, 00:08:05,VALID,1000.09,VALID,0,VALID,92.532,VALID,0,VALID,24.3824,VALID,40,VALID,0,
2011-05-08, 00:09:05,VALID,1000.1,VALID,0,VALID,92.5626,VALID,0,VALID,24.4037,VALID,40,VALID,0,
2011-05-08, 00:10:05,VALID,1000.07,VALID,0,VALID,92.5931,VALID,0,VALID,24.4037,VALID,40,VALID,0,
2011-05-08, 00:11:05,VALID,1000.05,VALID,0,VALID,92.5854,VALID,0,VALID,24.3842,VALID,40,VALID,0,
2011-05-08, 00:12:05,VALID,1000.06,VALID,0,VALID,92.6236,VALID,0,VALID,24.3647,VALID,40,VALID,0,
2011-05-08, 00:13:05,VALID,1000.05,VALID,0,VALID,92.6312,VALID,0,VALID,24.3647,VALID,40,VALID,0,
2011-05-08, 00:14:05,VALID,1000.04,VALID,0,VALID,92.6694,VALID,0,VALID,24.3238,VALID,40,VALID,0,
2011-05-08, 00:15:05,VALID,1000.03,VALID,0,VALID,92.6694,VALID,0,VALID,24.3257,VALID,40,VALID,0,
2011-05-08, 00:16:05,VALID,1000.04,VALID,0,VALID,92.6617,VALID,0,VALID,24.3257,VALID,40,VALID,0,
2011-05-08, 00:17:05,VALID,1000.04,VALID,0,VALID,92.7075,VALID,0,VALID,24.3062,VALID,40,VALID,0,
2011-05-08, 00:18:05,VALID,1000.06,VALID,0,VALID,92.6999,VALID,0,VALID,24.2866,VALID,40,VALID,0,
2011-05-08, 00:19:05,VALID,1000.09,VALID,0,VALID,92.7151,VALID,0,VALID,24.2671,VALID,40,VALID,0,
2011-05-08, 00:20:05,VALID,1000.09,VALID,0,VALID,92.6923,VALID,0,VALID,24.2671,VALID,40,VALID,0,
2011-05-08, 00:21:05,VALID,1000.14,VALID,0,VALID,92.6923,VALID,0,VALID,24.2671,VALID,40,VALID,0,
2011-05-08, 00:22:05,VALID,1000.11,VALID,0,VALID,92.677,VALID,0,VALID,24.2476,VALID,40,VALID,0,
2011-05-08, 00:23:05,VALID,1000.13,VALID,0,VALID,92.6465,VALID,0,VALID,24.2281,VALID,40,VALID,0,
2011-05-08, 00:24:05,VALID,1000.09,VALID,0,VALID,92.6388,VALID,0,VALID,24.2281,VALID,40,VALID,0,
2011-05-08, 00:25:05,VALID,1000.08,VALID,0,VALID,92.6236,VALID,0,VALID,24.2281,VALID,40,VALID,0,
2011-05-08, 00:26:05,VALID,1000.06,VALID,0,VALID,92.6083,VALID,0,VALID,24.2281,VALID,40,VALID,0,
2011-05-08, 00:27:05,VALID,1000.08,VALID,0,VALID,92.616,VALID,0,VALID,24.2476,VALID,40,VALID,0,
2011-05-08, 00:28:05,VALID,1000.05,VALID,0,VALID,92.6388,VALID,0,VALID,24.2476,VALID,40,VALID,0,
2011-05-08, 00:29:05,VALID,1000.06,VALID,0,VALID,92.6694,VALID,0,VALID,24.2476,VALID,40,VALID,0,
2011-05-08, 00:30:05,VALID,1000.08,VALID,0,VALID,92.6388,VALID,0,VALID,24.2476,VALID,40,VALID,0,
2011-05-08, 00:31:05,VALID,1000.07,VALID,0,VALID,92.6617,VALID,0,VALID,24.2086,VALID,40,VALID,0,
2011-05-08, 00:32:05,VALID,1000.03,VALID,0,VALID,92.677,VALID,0,VALID,24.1696,VALID,40,VALID,0,
2011-05-08, 00:33:05,VALID,1000.03,VALID,0,VALID,92.6923,VALID,0,VALID,24.1891,VALID,40,VALID,0,
2011-05-08, 00:34:05,VALID,999.987,VALID,0,VALID,92.7228,VALID,0,VALID,24.1696,VALID,40,VALID,0,
2011-05-08, 00:35:05,VALID,1000.02,VALID,0,VALID,92.7151,VALID,0,VALID,24.1696,VALID,40,VALID,0,
2011-05-08, 00:36:05,VALID,999.982,VALID,0,VALID,92.738,VALID,0,VALID,24.1482,VALID,40,VALID,0,
2011-05-08, 00:37:05,VALID,999.965,VALID,0,VALID,92.7533,VALID,0,VALID,24.15,VALID,40,VALID,0,
2011-05-08, 00:38:04,VALID,999.986,VALID,0,VALID,92.7762,VALID,0,VALID,24.15,VALID,40,VALID,0,
2011-05-08, 00:39:04,VALID,999.956,VALID,0,VALID,92.822,VALID,0,VALID,24.1305,VALID,40,VALID,0,
2011-05-08, 00:40:04,VALID,999.977,VALID,0,VALID,92.8143,VALID,0,VALID,24.1305,VALID,40,VALID,0,
2011-05-08, 00:41:04,VALID,1000,VALID,0,VALID,92.8677,VALID,0,VALID,24.1305,VALID,40,VALID,0,
2011-05-08, 00:42:04,VALID,1000.01,VALID,0,VALID,92.883,VALID,0,VALID,24.15,VALID,40,VALID,0,
2011-05-08, 00:43:04,VALID,1000.03,VALID,0,VALID,92.9288,VALID,0,VALID,24.15,VALID,40,VALID,0,
2011-05-08, 00:44:04,VALID,1000.03,VALID,0,VALID,92.9517,VALID,0,VALID,24.1305,VALID,40,VALID,0,
2011-05-08, 00:45:04,VALID,1000.01,VALID,0,VALID,92.9745,VALID,0,VALID,24.1305,VALID,86,VALID,0,
2011-05-08, 00:46:04,VALID,999.997,VALID,0,VALID,92.9822,VALID,0,VALID,24.15,VALID,86,VALID,0,
2011-05-08, 00:47:04,VALID,999.968,VALID,0,VALID,92.9898,VALID,0,VALID,24.1092,VALID,86,VALID,0,
2011-05-08, 00:48:04,VALID,999.93,VALID,0,VALID,93.0203,VALID,0,VALID,24.1305,VALID,86,VALID,0,
2011-05-08, 00:49:04,VALID,999.951,VALID,0,VALID,93.0203,VALID,0,VALID,24.1305,VALID,86,VALID,0,
2011-05-08, 00:50:04,VALID,999.941,VALID,0,VALID,93.0585,VALID,0,VALID,24.111,VALID,86,VALID,0,
2011-05-08, 00:51:04,VALID,999.945,VALID,0,VALID,93.0432,VALID,0,VALID,24.111,VALID,86,VALID,0,
2011-05-08, 00:52:04,VALID,999.926,VALID,0,VALID,93.0432,VALID,0,VALID,24.0915,VALID,86,VALID,0,
2011-05-08, 00:53:04,VALID,999.874,VALID,0,VALID,93.0737,VALID,0,VALID,24.0915,VALID,86,VALID,0,
2011-05-08, 00:54:04,VALID,999.844,VALID,0,VALID,93.0661,VALID,0,VALID,24.0915,VALID,86,VALID,0,
2011-05-08, 00:55:04,VALID,999.848,VALID,0,VALID,93.0966,VALID,0,VALID,24.072,VALID,86,VALID,0,
2011-05-08, 00:56:04,VALID,999.807,VALID,0,VALID,93.0661,VALID,0,VALID,24.0525,VALID,86,VALID,0,
2011-05-08, 00:57:04,VALID,999.8,VALID,0,VALID,93.0814,VALID,0,VALID,24.0329,VALID,86,VALID,0,
2011-05-08, 00:58:04,VALID,999.787,VALID,0,VALID,93.0966,VALID,0,VALID,24.0134,VALID,102,VALID,0,
2011-05-08, 00:59:04,VALID,999.816,VALID,0,VALID,93.1119,VALID,0,VALID,23.9939,VALID,102,VALID,0,
2011-05-08, 01:00:04,VALID,999.793,VALID,0,VALID,93.1119,VALID,0,VALID,23.9939,VALID,102,VALID,0,
2011-05-08, 01:01:04,VALID,999.786,VALID,0,VALID,93.1043,VALID,0,VALID,23.9744,VALID,102,VALID,0,
2011-05-08, 01:02:04,VALID,999.781,VALID,0,VALID,93.1119,VALID,0,VALID,23.9939,VALID,102,VALID,0,
2011-05-08, 01:03:04,VALID,999.761,VALID,0,VALID,93.1119,VALID,0,VALID,23.9744,VALID,102,VALID,0,
2011-05-08, 01:04:04,VALID,999.735,VALID,0,VALID,93.1195,VALID,0,VALID,23.9939,VALID,102,VALID,0,
2011-05-08, 01:05:04,VALID,999.764,VALID,0,VALID,93.1271,VALID,0,VALID,23.9939,VALID,102,VALID,0,
2011-05-08, 01:06:04,VALID,999.754,VALID,0,VALID,93.1348,VALID,0,VALID,23.9939,VALID,102,VALID,0,
2011-05-08, 01:07:04,VALID,999.751,VALID,0,VALID,93.1424,VALID,0,VALID,24.0134,VALID,102,VALID,0,
2011-05-08, 01:08:04,VALID,999.748,VALID,0,VALID,93.1653,VALID,0,VALID,24.0134,VALID,102,VALID,0,
2011-05-08, 01:09:04,VALID,999.705,VALID,0,VALID,93.1577,VALID,0,VALID,24.0134,VALID,102,VALID,0,
2011-05-08, 01:10:04,VALID,999.649,VALID,0,VALID,93.1729,VALID,0,VALID,24.0116,VALID,102,VALID,0,
2011-05-08, 01:11:04,VALID,999.649,VALID,0,VALID,93.1729,VALID,0,VALID,24.0329,VALID,102,VALID,0,
2011-05-08, 01:12:04,VALID,999.626,VALID,0,VALID,93.2034,VALID,0,VALID,24.0543,VALID,102,VALID,0,
2011-05-08, 01:13:04,VALID,999.606,VALID,0,VALID,93.1882,VALID,0,VALID,24.0116,VALID,102,VALID,0,
2011-05-08, 01:14:04,VALID,999.545,VALID,0,VALID,93.2187,VALID,0,VALID,24.0329,VALID,102,VALID,0,
2011-05-08, 01:15:04,VALID,999.497,VALID,0,VALID,93.2187,VALID,0,VALID,24.0134,VALID,102,VALID,0,
2011-05-08, 01:16:04,VALID,999.483,VALID,0,VALID,93.2111,VALID,0,VALID,24.0134,VALID,102,VALID,0,
2011-05-08, 01:17:04,VALID,999.509,VALID,0,VALID,93.2416,VALID,0,VALID,24.0329,VALID,102,VALID,0,
2011-05-08, 01:18:04,VALID,999.486,VALID,0,VALID,93.2187,VALID,0,VALID,24.0329,VALID,102,VALID,0,
2011-05-08, 01:19:04,VALID,999.516,VALID,0,VALID,93.234,VALID,0,VALID,24.0329,VALID,102,VALID,0,
2011-05-08, 01:20:04,VALID,999.532,VALID,0,VALID,93.2263,VALID,0,VALID,24.0329,VALID,102,VALID,0,
2011-05-08, 01:21:04,VALID,999.523,VALID,0,VALID,93.2263,VALID,0,VALID,23.9939,VALID,102,VALID,0,
2011-05-08, 01:22:04,VALID,999.505,VALID,0,VALID,93.2111,VALID,0,VALID,23.9939,VALID,102,VALID,0,
2011-05-08, 01:23:04,VALID,999.507,VALID,0,VALID,93.2034,VALID,0,VALID,23.9939,VALID,102,VALID,0,
2011-05-08, 01:24:04,VALID,999.501,VALID,0,VALID,93.2111,VALID,0,VALID,23.9744,VALID,102,VALID,0,
2011-05-08, 01:25:04,VALID,999.507,VALID,0,VALID,93.1958,VALID,0,VALID,23.9159,VALID,98,VALID,0,
2011-05-08, 01:26:04,VALID,999.462,VALID,0,VALID,93.1805,VALID,0,VALID,23.9354,VALID,83,VALID,0,
2011-05-08, 01:27:04,VALID,999.422,VALID,0,VALID,93.2034,VALID,0,VALID,23.9567,VALID,65,VALID,0,
2011-05-08, 01:28:04,VALID,999.385,VALID,0,VALID,93.1805,VALID,0,VALID,23.9354,VALID,59,VALID,0,
2011-05-08, 01:29:04,VALID,999.39,VALID,0,VALID,93.1882,VALID,0,VALID,23.9159,VALID,37,VALID,0,
2011-05-08, 01:30:04,VALID,999.381,VALID,0,VALID,93.15,VALID,0,VALID,23.8573,VALID,19,VALID,0,
2011-05-08, 01:31:04,VALID,999.36,VALID,0,VALID,93.1348,VALID,0,VALID,23.7793,VALID,18,VALID,0,
2011-05-08, 01:32:04,VALID,999.386,VALID,0,VALID,93.1348,VALID,0,VALID,23.7402,VALID,18,VALID,0,
2011-05-08, 01:33:04,VALID,999.351,VALID,0,VALID,93.1043,VALID,0,VALID,23.7402,VALID,18,VALID,0,
2011-05-08, 01:34:04,VALID,999.373,VALID,0,VALID,93.1195,VALID,0,VALID,23.7207,VALID,18,VALID,0,
2011-05-08, 01:35:04,VALID,999.349,VALID,0,VALID,93.1043,VALID,0,VALID,23.7207,VALID,18,VALID,0,
2011-05-08, 01:36:04,VALID,999.405,VALID,0,VALID,93.1043,VALID,0,VALID,23.7207,VALID,14,VALID,0,
2011-05-08, 01:37:04,VALID,999.359,VALID,0,VALID,93.1043,VALID,0,VALID,23.7207,VALID,14,VALID,0,
2011-05-08, 01:38:04,VALID,999.338,VALID,0,VALID,93.089,VALID,0,VALID,23.7207,VALID,17,VALID,1.25039,
2011-05-08, 01:39:04,VALID,999.339,VALID,0,VALID,93.0966,VALID,0,VALID,23.7207,VALID,27,VALID,1.19922,
2011-05-08, 01:40:04,VALID,999.268,VALID,0,VALID,93.0814,VALID,0,VALID,23.7402,VALID,35,VALID,1.35,
2011-05-08, 01:41:04,VALID,999.255,VALID,0,VALID,93.1043,VALID,0,VALID,23.7402,VALID,36,VALID,1.33008,
2011-05-08, 01:42:04,VALID,999.255,VALID,0,VALID,93.1043,VALID,0,VALID,23.7402,VALID,39,VALID,1.24609,
2011-05-08, 01:43:04,VALID,999.262,VALID,0,VALID,93.0814,VALID,0,VALID,23.7597,VALID,42,VALID,1.18828,
2011-05-08, 01:44:04,VALID,999.273,VALID,0,VALID,93.089,VALID,0,VALID,23.7793,VALID,42,VALID,1.0707,
2011-05-08, 01:45:04,VALID,999.276,VALID,0,VALID,93.089,VALID,0,VALID,23.7597,VALID,42,VALID,0.821875,
2011-05-08, 01:46:04,VALID,999.3,VALID,0,VALID,93.0585,VALID,0,VALID,23.7597,VALID,42,VALID,0.479688,
2011-05-08, 01:47:04,VALID,999.278,VALID,0,VALID,93.0356,VALID,0,VALID,23.7402,VALID,42,VALID,0.255859,
2011-05-08, 01:48:04,VALID,999.272,VALID,0,VALID,93.028,VALID,0,VALID,23.7207,VALID,42,VALID,0,
2011-05-08, 01:49:04,VALID,999.255,VALID,0,VALID,92.9898,VALID,0,VALID,23.7012,VALID,42,VALID,0,
2011-05-08, 01:50:04,VALID,999.24,VALID,0,VALID,92.9822,VALID,0,VALID,23.7012,VALID,42,VALID,0,
2011-05-08, 01:51:04,VALID,999.196,VALID,0,VALID,92.9517,VALID,0,VALID,23.6817,VALID,42,VALID,0,
2011-05-08, 01:52:04,VALID,999.194,VALID,0,VALID,92.9669,VALID,0,VALID,23.6817,VALID,42,VALID,0,
2011-05-08, 01:53:04,VALID,999.199,VALID,0,VALID,92.9517,VALID,0,VALID,23.6427,VALID,42,VALID,0,
2011-05-08, 01:54:04,VALID,999.208,VALID,0,VALID,92.944,VALID,0,VALID,23.6427,VALID,42,VALID,0,
2011-05-08, 01:55:04,VALID,999.191,VALID,0,VALID,92.9517,VALID,0,VALID,23.6622,VALID,42,VALID,0,
2011-05-08, 01:56:04,VALID,999.217,VALID,0,VALID,92.9898,VALID,0,VALID,23.6817,VALID,42,VALID,0,
2011-05-08, 01:57:04,VALID,999.258,VALID,0,VALID,93.0051,VALID,0,VALID,23.6817,VALID,42,VALID,0,
2011-05-08, 01:58:04,VALID,999.23,VALID,0,VALID,93.0127,VALID,0,VALID,23.7012,VALID,42,VALID,0,
2011-05-08, 01:59:04,VALID,999.219,VALID,0,VALID,93.0356,VALID,0,VALID,23.6817,VALID,42,VALID,0,
2011-05-08, 02:00:04,VALID,999.237,VALID,0,VALID,93.028,VALID,0,VALID,23.6817,VALID,42,VALID,0,
2011-05-08, 02:01:04,VALID,999.216,VALID,0,VALID,93.0356,VALID,0,VALID,23.7012,VALID,42,VALID,0,
2011-05-08, 02:02:04,VALID,999.213,VALID,0,VALID,93.0585,VALID,0,VALID,23.7012,VALID,42,VALID,0.695313,
2011-05-08, 02:03:04,VALID,999.235,VALID,0,VALID,93.0661,VALID,0,VALID,23.6817,VALID,42,VALID,0.672266,
2011-05-08, 02:04:04,VALID,999.215,VALID,0,VALID,93.0432,VALID,0,VALID,23.6427,VALID,42,VALID,0.362109,
2011-05-08, 02:05:04,VALID,999.226,VALID,0,VALID,93.0661,VALID,0,VALID,23.6232,VALID,42,VALID,0,
2011-05-08, 02:06:04,VALID,999.219,VALID,0,VALID,93.0203,VALID,0,VALID,23.5841,VALID,42,VALID,0,
2011-05-08, 02:07:04,VALID,999.203,VALID,0,VALID,93.0203,VALID,0,VALID,23.5841,VALID,42,VALID,0,
2011-05-08, 02:08:04,VALID,999.195,VALID,0,VALID,93.0127,VALID,0,VALID,23.5646,VALID,42,VALID,0,
2011-05-08, 02:09:04,VALID,999.196,VALID,0,VALID,93.028,VALID,0,VALID,23.5433,VALID,42,VALID,0,
2011-05-08, 02:10:04,VALID,999.203,VALID,0,VALID,93.028,VALID,0,VALID,23.5451,VALID,42,VALID,0,
2011-05-08, 02:11:04,VALID,999.197,VALID,0,VALID,93.0585,VALID,0,VALID,23.5646,VALID,42,VALID,0,
2011-05-08, 02:12:04,VALID,999.203,VALID,0,VALID,93.0737,VALID,0,VALID,23.6036,VALID,42,VALID,0,
2011-05-08, 02:13:04,VALID,999.167,VALID,0,VALID,93.089,VALID,0,VALID,23.6232,VALID,42,VALID,0,
2011-05-08, 02:14:04,VALID,999.169,VALID,0,VALID,93.1119,VALID,0,VALID,23.6036,VALID,42,VALID,0,
2011-05-08, 02:15:04,VALID,999.182,VALID,0,VALID,93.1119,VALID,0,VALID,23.6036,VALID,42,VALID,0,
2011-05-08, 02:16:04,VALID,999.199,VALID,0,VALID,93.1348,VALID,0,VALID,23.5841,VALID,42,VALID,0,
2011-05-08, 02:17:04,VALID,999.177,VALID,0,VALID,93.1348,VALID,0,VALID,23.6232,VALID,42,VALID,0,
2011-05-08, 02:18:04,VALID,999.153,VALID,0,VALID,93.1805,VALID,0,VALID,23.6232,VALID,42,VALID,0,
2011-05-08, 02:19:04,VALID,999.125,VALID,0,VALID,93.1958,VALID,0,VALID,23.6036,VALID,42,VALID,0,
2011-05-08, 02:20:04,VALID,999.129,VALID,0,VALID,93.2034,VALID,0,VALID,23.6036,VALID,42,VALID,0,
2011-05-08, 02:21:04,VALID,999.098,VALID,0,VALID,93.2263,VALID,0,VALID,23.5841,VALID,42,VALID,0,
2011-05-08, 02:22:04,VALID,999.042,VALID,0,VALID,93.234,VALID,0,VALID,23.5646,VALID,42,VALID,0.282813,
2011-05-08, 02:23:04,VALID,999.042,VALID,0,VALID,93.2263,VALID,0,VALID,23.5646,VALID,42,VALID,0.545703,
2011-05-08, 02:24:04,VALID,999.062,VALID,0,VALID,93.2492,VALID,0,VALID,23.5646,VALID,101,VALID,0.692187,
2011-05-08, 02:25:04,VALID,999.106,VALID,0,VALID,93.2416,VALID,0,VALID,23.5841,VALID,102,VALID,0.489062,
2011-05-08, 02:26:04,VALID,999.129,VALID,0,VALID,93.2797,VALID,0,VALID,23.5646,VALID,102,VALID,0.329688,
2011-05-08, 02:27:04,VALID,999.152,VALID,0,VALID,93.2874,VALID,0,VALID,23.5451,VALID,102,VALID,0.353125,
2011-05-08, 02:28:04,VALID,999.115,VALID,0,VALID,93.295,VALID,0,VALID,23.5238,VALID,102,VALID,0.551562,
2011-05-08, 02:29:04,VALID,999.16,VALID,0,VALID,93.2874,VALID,0,VALID,23.5256,VALID,102,VALID,0.748438,
2011-05-08, 02:30:04,VALID,999.143,VALID,0,VALID,93.3026,VALID,0,VALID,23.5451,VALID,102,VALID,0.774219,
2011-05-08, 02:31:04,VALID,999.141,VALID,0,VALID,93.3026,VALID,0,VALID,23.5238,VALID,114,VALID,0.833984,
2011-05-08, 02:32:04,VALID,999.15,VALID,0,VALID,93.3026,VALID,0,VALID,23.5256,VALID,114,VALID,0.766406,
2011-05-08, 02:33:04,VALID,999.163,VALID,0,VALID,93.3179,VALID,0,VALID,23.5256,VALID,114,VALID,0.599609,
2011-05-08, 02:34:04,VALID,999.174,VALID,0,VALID,93.3179,VALID,0,VALID,23.5256,VALID,114,VALID,0.448828,
2011-05-08, 02:35:04,VALID,999.168,VALID,0,VALID,93.3026,VALID,0,VALID,23.4866,VALID,113,VALID,0.25625,
2011-05-08, 02:36:04,VALID,999.171,VALID,0,VALID,93.3103,VALID,0,VALID,23.5061,VALID,113,VALID,0.192578,
2011-05-08, 02:37:04,VALID,999.17,VALID,0,VALID,93.3255,VALID,0,VALID,23.4866,VALID,113,VALID,0,
2011-05-08, 02:38:04,VALID,999.163,VALID,0,VALID,93.3255,VALID,0,VALID,23.4866,VALID,113,VALID,0,
2011-05-08, 02:39:04,VALID,999.197,VALID,0,VALID,93.3179,VALID,0,VALID,23.4653,VALID,113,VALID,0,
2011-05-08, 02:40:04,VALID,999.217,VALID,0,VALID,93.3179,VALID,0,VALID,23.4671,VALID,113,VALID,0,
2011-05-08, 02:41:04,VALID,999.219,VALID,0,VALID,93.3179,VALID,0,VALID,23.4475,VALID,113,VALID,0,
2011-05-08, 02:42:04,VALID,999.184,VALID,0,VALID,93.3179,VALID,0,VALID,23.4475,VALID,113,VALID,0,
2011-05-08, 02:43:04,VALID,999.205,VALID,0,VALID,93.3255,VALID,0,VALID,23.4671,VALID,113,VALID,0,
2011-05-08, 02:44:04,VALID,999.211,VALID,0,VALID,93.3408,VALID,0,VALID,23.4458,VALID,113,VALID,0.266406,
2011-05-08, 02:45:04,VALID,999.198,VALID,0,VALID,93.3408,VALID,0,VALID,23.4475,VALID,113,VALID,0,
2011-05-08, 02:46:04,VALID,999.203,VALID,0,VALID,93.3331,VALID,0,VALID,23.4067,VALID,113,VALID,0,
2011-05-08, 02:47:04,VALID,999.208,VALID,0,VALID,93.3408,VALID,0,VALID,23.4085,VALID,113,VALID,0,
2011-05-08, 02:48:04,VALID,999.195,VALID,0,VALID,93.3331,VALID,0,VALID,23.4085,VALID,113,VALID,0,
2011-05-08, 02:49:04,VALID,999.217,VALID,0,VALID,93.356,VALID,0,VALID,23.389,VALID,113,VALID,0,
2011-05-08, 02:50:04,VALID,999.217,VALID,0,VALID,93.3637,VALID,0,VALID,23.389,VALID,113,VALID,0,
2011-05-08, 02:51:04,VALID,999.246,VALID,0,VALID,93.356,VALID,0,VALID,23.389,VALID,113,VALID,0,
2011-05-08, 02:52:04,VALID,999.233,VALID,0,VALID,93.356,VALID,0,VALID,23.389,VALID,113,VALID,0,
2011-05-08, 02:53:04,VALID,999.242,VALID,0,VALID,93.3942,VALID,0,VALID,23.389,VALID,113,VALID,0,
2011-05-08, 02:54:04,VALID,999.219,VALID,0,VALID,93.3789,VALID,0,VALID,23.389,VALID,113,VALID,0,
2011-05-08, 02:55:04,VALID,999.185,VALID,0,VALID,93.4094,VALID,0,VALID,23.4085,VALID,113,VALID,0,
2011-05-08, 02:56:04,VALID,999.179,VALID,0,VALID,93.3942,VALID,0,VALID,23.3677,VALID,113,VALID,0,
2011-05-08, 02:57:04,VALID,999.162,VALID,0,VALID,93.4094,VALID,0,VALID,23.4085,VALID,113,VALID,0,
2011-05-08, 02:58:04,VALID,999.18,VALID,0,VALID,93.4018,VALID,0,VALID,23.4085,VALID,113,VALID,0,
2011-05-08, 02:59:04,VALID,999.137,VALID,0,VALID,93.4094,VALID,0,VALID,23.4085,VALID,113,VALID,0,
2011-05-08, 03:00:04,VALID,999.164,VALID,0,VALID,93.4247,VALID,0,VALID,23.428,VALID,114,VALID,0,
2011-05-08, 03:01:04,VALID,999.128,VALID,0,VALID,93.4247,VALID,0,VALID,23.4475,VALID,114,VALID,0,
2011-05-08, 03:02:04,VALID,999.14,VALID,0,VALID,93.4476,VALID,0,VALID,23.4866,VALID,114,VALID,0,
2011-05-08, 03:03:04,VALID,999.156,VALID,0,VALID,93.4628,VALID,0,VALID,23.5061,VALID,113,VALID,0,
2011-05-08, 03:04:04,VALID,999.164,VALID,0,VALID,93.4628,VALID,0,VALID,23.5061,VALID,113,VALID,0,
2011-05-08, 03:05:04,VALID,999.157,VALID,0,VALID,93.4552,VALID,0,VALID,23.4848,VALID,113,VALID,0,
2011-05-08, 03:06:04,VALID,999.114,VALID,0,VALID,93.4628,VALID,0,VALID,23.5061,VALID,113,VALID,0,
2011-05-08, 03:07:04,VALID,999.124,VALID,0,VALID,93.4552,VALID,0,VALID,23.4848,VALID,113,VALID,0,
2011-05-08, 03:08:04,VALID,999.109,VALID,0,VALID,93.4781,VALID,0,VALID,23.4866,VALID,113,VALID,0,
2011-05-08, 03:09:04,VALID,999.107,VALID,0,VALID,93.4705,VALID,0,VALID,23.4866,VALID,113,VALID,0,
2011-05-08, 03:10:04,VALID,999.112,VALID,0,VALID,93.4552,VALID,0,VALID,23.5061,VALID,113,VALID,0,
2011-05-08, 03:11:04,VALID,999.118,VALID,0,VALID,93.4934,VALID,0,VALID,23.4866,VALID,113,VALID,0,
2011-05-08, 03:12:04,VALID,999.09,VALID,0,VALID,93.4934,VALID,0,VALID,23.4866,VALID,113,VALID,0,
2011-05-08, 03:13:04,VALID,999.116,VALID,0,VALID,93.4934,VALID,0,VALID,23.5061,VALID,113,VALID,0,
2011-05-08, 03:14:04,VALID,999.125,VALID,0,VALID,93.4934,VALID,0,VALID,23.4458,VALID,113,VALID,0,
2011-05-08, 03:15:04,VALID,999.165,VALID,0,VALID,93.4934,VALID,0,VALID,23.4671,VALID,113,VALID,0,
2011-05-08, 03:16:04,VALID,999.161,VALID,0,VALID,93.4857,VALID,0,VALID,23.4067,VALID,113,VALID,0,
2011-05-08, 03:17:04,VALID,999.163,VALID,0,VALID,93.4857,VALID,0,VALID,23.4085,VALID,67,VALID,0,
2011-05-08, 03:18:04,VALID,999.174,VALID,0,VALID,93.4781,VALID,0,VALID,23.4085,VALID,35,VALID,0.796094,
2011-05-08, 03:19:04,VALID,999.164,VALID,0,VALID,93.4857,VALID,0,VALID,23.428,VALID,22,VALID,0.749219,
2011-05-08, 03:20:04,VALID,999.166,VALID,0,VALID,93.4934,VALID,0,VALID,23.4263,VALID,22,VALID,0.325781,
2011-05-08, 03:21:04,VALID,999.177,VALID,0,VALID,93.4934,VALID,0,VALID,23.4263,VALID,22,VALID,0.140625,
2011-05-08, 03:22:04,VALID,999.158,VALID,0,VALID,93.4934,VALID,0,VALID,23.4475,VALID,22,VALID,0.0546875,
2011-05-08, 03:23:04,VALID,999.144,VALID,0,VALID,93.4705,VALID,0,VALID,23.4475,VALID,22,VALID,0.392578,
2011-05-08, 03:24:04,VALID,999.134,VALID,0,VALID,93.4857,VALID,0,VALID,23.4085,VALID,22,VALID,0,
2011-05-08, 03:25:04,VALID,999.129,VALID,0,VALID,93.4705,VALID,0,VALID,23.389,VALID,22,VALID,0,
2011-05-08, 03:26:04,VALID,999.155,VALID,0,VALID,93.4628,VALID,0,VALID,23.389,VALID,22,VALID,0,
2011-05-08, 03:27:04,VALID,999.153,VALID,0,VALID,93.4857,VALID,0,VALID,23.35,VALID,22,VALID,0,
2011-05-08, 03:28:04,VALID,999.165,VALID,0,VALID,93.4781,VALID,0,VALID,23.3482,VALID,22,VALID,0,
2011-05-08, 03:29:04,VALID,999.169,VALID,0,VALID,93.4705,VALID,0,VALID,23.3695,VALID,22,VALID,0,
2011-05-08, 03:30:04,VALID,999.136,VALID,0,VALID,93.4934,VALID,0,VALID,23.3695,VALID,22,VALID,0,
2011-05-08, 03:31:04,VALID,999.143,VALID,0,VALID,93.4857,VALID,0,VALID,23.35,VALID,22,VALID,0,
2011-05-08, 03:32:04,VALID,999.126,VALID,0,VALID,93.501,VALID,0,VALID,23.35,VALID,22,VALID,0,
2011-05-08, 03:33:04,VALID,999.13,VALID,0,VALID,93.4781,VALID,0,VALID,23.3305,VALID,22,VALID,0,
2011-05-08, 03:34:04,VALID,999.133,VALID,0,VALID,93.4857,VALID,0,VALID,23.35,VALID,22,VALID,0,
2011-05-08, 03:35:04,VALID,999.16,VALID,0,VALID,93.4781,VALID,0,VALID,23.3305,VALID,22,VALID,0,
2011-05-08, 03:36:04,VALID,999.14,VALID,0,VALID,93.4857,VALID,0,VALID,23.2915,VALID,22,VALID,0,
2011-05-08, 03:37:04,VALID,999.138,VALID,0,VALID,93.4857,VALID,0,VALID,23.311,VALID,22,VALID,0,
2011-05-08, 03:38:04,VALID,999.115,VALID,0,VALID,93.4934,VALID,0,VALID,23.311,VALID,22,VALID,0,
2011-05-08, 03:39:04,VALID,999.131,VALID,0,VALID,93.4934,VALID,0,VALID,23.3305,VALID,22,VALID,0,
2011-05-08, 03:40:04,VALID,999.151,VALID,0,VALID,93.4934,VALID,0,VALID,23.311,VALID,22,VALID,0,
2011-05-08, 03:41:04,VALID,999.113,VALID,0,VALID,93.4857,VALID,0,VALID,23.2719,VALID,22,VALID,0.387891,
2011-05-08, 03:42:04,VALID,999.122,VALID,0,VALID,93.501,VALID,0,VALID,23.2915,VALID,22,VALID,0.553516,
2011-05-08, 03:43:04,VALID,999.112,VALID,0,VALID,93.501,VALID,0,VALID,23.311,VALID,22,VALID,0.49375,
2011-05-08, 03:44:04,VALID,999.099,VALID,0,VALID,93.5086,VALID,0,VALID,23.35,VALID,22,VALID,0.387891,
2011-05-08, 03:45:04,VALID,999.091,VALID,0,VALID,93.5086,VALID,0,VALID,23.3305,VALID,22,VALID,0,
2011-05-08, 03:46:04,VALID,999.087,VALID,0,VALID,93.4934,VALID,0,VALID,23.311,VALID,22,VALID,0,
2011-05-08, 03:47:04,VALID,999.05,VALID,0,VALID,93.501,VALID,0,VALID,23.2702,VALID,22,VALID,0,
2011-05-08, 03:48:04,VALID,999.057,VALID,0,VALID,93.5086,VALID,0,VALID,23.2702,VALID,22,VALID,0,
2011-05-08, 03:49:04,VALID,999.055,VALID,0,VALID,93.501,VALID,0,VALID,23.3305,VALID,22,VALID,0,
2011-05-08, 03:50:04,VALID,999.08,VALID,0,VALID,93.5086,VALID,0,VALID,23.3482,VALID,22,VALID,0,
2011-05-08, 03:51:04,VALID,999.092,VALID,0,VALID,93.4934,VALID,0,VALID,23.35,VALID,22,VALID,0,
2011-05-08, 03:52:04,VALID,999.113,VALID,0,VALID,93.501,VALID,0,VALID,23.3287,VALID,22,VALID,0,
2011-05-08, 03:53:04,VALID,999.119,VALID,0,VALID,93.5163,VALID,0,VALID,23.35,VALID,22,VALID,0,
2011-05-08, 03:54:04,VALID,999.082,VALID,0,VALID,93.5086,VALID,0,VALID,23.35,VALID,22,VALID,0,
2011-05-08, 03:55:04,VALID,999.095,VALID,0,VALID,93.4857,VALID,0.112286,VALID,23.35,VALID,22,VALID,0,
2011-05-08, 03:56:04,VALID,999.07,VALID,0,VALID,93.4934,VALID,0,VALID,23.35,VALID,22,VALID,0,
2011-05-08, 03:57:04,VALID,999.065,VALID,0,VALID,93.5086,VALID,0.112286,VALID,23.3092,VALID,22,VALID,0,
2011-05-08, 03:58:04,VALID,999.044,VALID,0,VALID,93.501,VALID,0,VALID,23.2719,VALID,22,VALID,0,
2011-05-08, 03:59:04,VALID,999.053,VALID,0,VALID,93.4934,VALID,0.112286,VALID,23.2134,VALID,22,VALID,0,